When you browse on this site, cookies collect data to enhance your experience and personalize the content and advertising you see.
Visit our Privacy Policy to learn more. By continuing to use the site, you agree to this use of cookies and data.
  • în România
  • Lista ţărilor
  • Pe 7 zile
  • Temperatura apei
  • Meteo pe hartă
  • Widget-uri
  • user-avatar
    Intrare

    Meteo pe oră la Bedford

    Astăzi, 11 Decembrie, Miercuri

    Timp Temperatura Precipitaţii Vânt Presiune Umiditate
    00:00 +5°C° 0.1 mm 5 m/s 752 mmHg 80%
    01:00 +3°C° 0 mm 5 m/s 752 mmHg 81%
    02:00 +3°C° 0 mm 5 m/s 752 mmHg 83%
    03:00 +2°C° 0 mm 5 m/s 752 mmHg 84%
    04:00 +3°C° 0 mm 4 m/s 752 mmHg 86%
    05:00 +3°C° 0 mm 4 m/s 752 mmHg 87%
    06:00 +1°C° 0 mm 4 m/s 751 mmHg 89%
    07:00 +3°C° 0 mm 4 m/s 751 mmHg 88%
    08:00 +3°C° 0 mm 4 m/s 750 mmHg 88%
    09:00 +2°C° 0 mm 5 m/s 750 mmHg 87%
    10:00 +3°C° 0 mm 5 m/s 749 mmHg 84%
    11:00 +5°C° 0 mm 5 m/s 749 mmHg 81%
    12:00 +6°C° 0 mm 5 m/s 748 mmHg 78%
    13:00 +5°C° 0 mm 4 m/s 747 mmHg 80%
    14:00 +5°C° 0 mm 3 m/s 747 mmHg 81%
    15:00 +5°C° 0 mm 3 m/s 746 mmHg 83%
    16:00 +4°C° 0.7 mm 4 m/s 746 mmHg 84%
    17:00 +2°C° 0.7 mm 5 m/s 746 mmHg 86%
    18:00 +2°C° 0.7 mm 7 m/s 747 mmHg 87%
    19:00 +1°C° 0 mm 6 m/s 747 mmHg 87%
    20:00 +1°C° 0 mm 6 m/s 747 mmHg 86%
    21:00 +1°C° 0 mm 5 m/s 748 mmHg 85%
    22:00 0°C° 0 mm 5 m/s 748 mmHg 85%
    23:00 0°C° 0 mm 5 m/s 748 mmHg 86%

    Mâine, 12 Decembrie, Joi

    Timp Temperatura Precipitaţii Vânt Presiune Umiditate
    00:00 0°C° 0 mm 5 m/s 749 mmHg 86%
    01:00 0°C° 0 mm 5 m/s 748 mmHg 87%
    02:00 0°C° 0 mm 4 m/s 748 mmHg 88%
    03:00 -1°C° 0 mm 4 m/s 748 mmHg 89%
    04:00 -1°C° 0 mm 4 m/s 748 mmHg 89%
    05:00 -1°C° 0 mm 4 m/s 747 mmHg 89%
    06:00 0°C° 0 mm 3 m/s 747 mmHg 89%
    07:00 -1°C° 0 mm 4 m/s 746 mmHg 88%
    08:00 0°C° 0 mm 4 m/s 746 mmHg 87%
    09:00 0°C° 0 mm 4 m/s 745 mmHg 86%
    10:00 +1°C° 0 mm 5 m/s 743 mmHg 84%
    11:00 +2°C° 0 mm 6 m/s 742 mmHg 82%
    12:00 +3°C° 0 mm 7 m/s 740 mmHg 80%
    13:00 +4°C° 0.3 mm 8 m/s 738 mmHg 83%
    14:00 +4°C° 0.3 mm 8 m/s 736 mmHg 87%
    15:00 +3°C° 0.3 mm 9 m/s 734 mmHg 90%
    16:00 +3°C° 1.6 mm 9 m/s 732 mmHg 91%
    17:00 +4°C° 1.6 mm 8 m/s 730 mmHg 92%
    18:00 +5°C° 1.6 mm 8 m/s 729 mmHg 93%
    19:00 +5°C° 1.7 mm 7 m/s 728 mmHg 93%
    20:00 +5°C° 1.7 mm 6 m/s 727 mmHg 92%
    21:00 +6°C° 1.7 mm 5 m/s 726 mmHg 92%
    22:00 +4°C° 0.6 mm 7 m/s 725 mmHg 91%
    23:00 +3°C° 0.6 mm 9 m/s 725 mmHg 90%

    Poimâine, 13 Decembrie, Vineri

    Timp Temperatura Precipitaţii Vânt Presiune Umiditate
    00:00 +3°C° 0.6 mm 10 m/s 725 mmHg 90%
    01:00 +3°C° 0.3 mm 10 m/s 725 mmHg 88%
    02:00 +2°C° 0.3 mm 10 m/s 725 mmHg 86%
    03:00 +2°C° 0.3 mm 10 m/s 725 mmHg 84%
    04:00 +2°C° 0.6 mm 10 m/s 725 mmHg 85%
    05:00 +2°C° 0.6 mm 11 m/s 726 mmHg 86%
    06:00 +2°C° 0.6 mm 12 m/s 726 mmHg 87%
    07:00 +2°C° 0.3 mm 12 m/s 728 mmHg 86%
    08:00 +2°C° 0.3 mm 12 m/s 729 mmHg 85%
    09:00 +2°C° 0.3 mm 11 m/s 730 mmHg 84%
    10:00 +3°C° 0.1 mm 10 m/s 731 mmHg 83%
    11:00 +3°C° 0.1 mm 9 m/s 732 mmHg 83%
    12:00 +4°C° 0.1 mm 8 m/s 733 mmHg 82%
    13:00 +5°C° 0 mm 8 m/s 734 mmHg 82%
    14:00 +5°C° 0 mm 8 m/s 734 mmHg 82%
    15:00 +5°C° 0 mm 7 m/s 735 mmHg 81%
    16:00 +4°C° 0 mm 7 m/s 735 mmHg 81%
    17:00 +4°C° 0 mm 6 m/s 735 mmHg 81%
    18:00 +3°C° 0 mm 6 m/s 735 mmHg 81%
    19:00 +3°C° 0 mm 6 m/s 734 mmHg 83%
    20:00 +2°C° 0 mm 5 m/s 733 mmHg 85%
    21:00 +2°C° 0 mm 5 m/s 733 mmHg 87%
    22:00 +3°C° 0.7 mm 6 m/s 731 mmHg 87%
    23:00 +5°C° 0.7 mm 7 m/s 730 mmHg 86%

    14 Decembrie, Sâmbătă

    Timp Temperatura Precipitaţii Vânt Presiune Umiditate
    00:00 +6°C° 0.7 mm 9 m/s 729 mmHg 85%
    01:00 +5°C° 0 mm 10 m/s 730 mmHg 81%
    02:00 +3°C° 0 mm 12 m/s 730 mmHg 77%
    03:00 +1°C° 0 mm 13 m/s 731 mmHg 73%
    04:00 +2°C° 0 mm 12 m/s 732 mmHg 73%
    05:00 +1°C° 0 mm 10 m/s 733 mmHg 72%
    06:00 +1°C° 0 mm 9 m/s 734 mmHg 71%
    07:00 +1°C° 0 mm 8 m/s 735 mmHg 73%
    08:00 0°C° 0 mm 8 m/s 735 mmHg 74%
    09:00 0°C° 0 mm 7 m/s 735 mmHg 76%
    10:00 +1°C° 0.2 mm 8 m/s 736 mmHg 74%
    11:00 +1°C° 0.2 mm 9 m/s 736 mmHg 72%
    12:00 +2°C° 0.2 mm 10 m/s 736 mmHg 70%
    13:00 +1°C° 0 mm 9 m/s 737 mmHg 68%
    14:00 +1°C° 0 mm 9 m/s 738 mmHg 65%
    15:00 +1°C° 0 mm 9 m/s 738 mmHg 63%
    16:00 0°C° 0 mm 8 m/s 739 mmHg 65%
    17:00 0°C° 0 mm 8 m/s 739 mmHg 67%
    18:00 0°C° 0 mm 8 m/s 739 mmHg 69%
    19:00 0°C° 0 mm 8 m/s 740 mmHg 72%
    20:00 0°C° 0 mm 8 m/s 740 mmHg 75%
    21:00 0°C° 0 mm 7 m/s 740 mmHg 77%
    22:00 +1°C° 0 mm 6 m/s 739 mmHg 79%
    23:00 0°C° 0 mm 5 m/s 738 mmHg 80%

    15 Decembrie, Duminică

    Timp Temperatura Precipitaţii Vânt Presiune Umiditate
    00:00 0°C° 0 mm 4 m/s 737 mmHg 81%
    01:00 +1°C° 2.2 mm 4 m/s 736 mmHg 85%
    02:00 +1°C° 2.2 mm 4 m/s 734 mmHg 89%
    03:00 +3°C° 2.2 mm 4 m/s 733 mmHg 93%
    04:00 +1°C° 0.7 mm 5 m/s 734 mmHg 91%
    05:00 -1°C° 0.7 mm 6 m/s 735 mmHg 90%
    06:00 -1°C° 0.7 mm 7 m/s 735 mmHg 89%
    07:00 -1°C° 0.3 mm 7 m/s 737 mmHg 91%
    08:00 -1°C° 0.3 mm 7 m/s 738 mmHg 93%
    09:00 -1°C° 0.3 mm 6 m/s 740 mmHg 95%
    10:00 0°C° 0 mm 7 m/s 740 mmHg 90%
    11:00 +1°C° 0 mm 8 m/s 741 mmHg 85%
    12:00 +2°C° 0 mm 10 m/s 741 mmHg 80%
    13:00 +2°C° 0 mm 9 m/s 742 mmHg 79%
    14:00 +2°C° 0 mm 8 m/s 742 mmHg 79%
    15:00 +2°C° 0 mm 8 m/s 743 mmHg 78%
    16:00 +3°C° 0 mm 7 m/s 743 mmHg 79%
    17:00 +3°C° 0 mm 7 m/s 744 mmHg 80%
    18:00 +2°C° 0 mm 7 m/s 745 mmHg 81%
    19:00 +2°C° 0 mm 7 m/s 745 mmHg 81%
    20:00 +2°C° 0 mm 7 m/s 746 mmHg 81%
    21:00 +2°C° 0 mm 6 m/s 746 mmHg 81%
    22:00 +2°C° 0 mm 6 m/s 747 mmHg 82%
    23:00 +1°C° 0 mm 6 m/s 747 mmHg 83%

    16 Decembrie, Luni

    Timp Temperatura Precipitaţii Vânt Presiune Umiditate
    00:00 +1°C° 0 mm 5 m/s 748 mmHg 84%
    01:00 +1°C° 0 mm 5 m/s 748 mmHg 85%
    02:00 +1°C° 0 mm 5 m/s 748 mmHg 87%
    03:00 +1°C° 0 mm 5 m/s 749 mmHg 88%
    04:00 +1°C° 0 mm 4 m/s 749 mmHg 88%
    05:00 +1°C° 0 mm 4 m/s 749 mmHg 89%
    06:00 +2°C° 0 mm 3 m/s 749 mmHg 90%
    07:00 +1°C° 0 mm 4 m/s 749 mmHg 90%
    08:00 +3°C° 0 mm 4 m/s 749 mmHg 90%
    09:00 +3°C° 0 mm 5 m/s 748 mmHg 90%
    10:00 +4°C° 0 mm 6 m/s 748 mmHg 88%
    11:00 +5°C° 0 mm 7 m/s 748 mmHg 87%
    12:00 +6°C° 0 mm 8 m/s 747 mmHg 85%
    13:00 +5°C° 1.5 mm 7 m/s 747 mmHg 87%
    14:00 +5°C° 1.5 mm 7 m/s 747 mmHg 89%
    15:00 +4°C° 1.5 mm 6 m/s 746 mmHg 91%
    16:00 +5°C° 0.4 mm 5 m/s 747 mmHg 91%
    17:00 +4°C° 0.4 mm 4 m/s 747 mmHg 92%
    18:00 +4°C° 0.4 mm 3 m/s 747 mmHg 92%
    19:00 +4°C° 0 mm 2 m/s 748 mmHg 91%
    20:00 +4°C° 0 mm 2 m/s 748 mmHg 91%
    21:00 +4°C° 0 mm 1 m/s 748 mmHg 90%
    22:00 +4°C° 0 mm 1 m/s 749 mmHg 89%
    23:00 +4°C° 0 mm 1 m/s 749 mmHg 88%
    Arată mai mult